Showing default

QIANFAN-154, 69113

Orbit data source: Space-Track

QIANFAN-154, 69113 is a Chinese payload satellite in LEO that was launched on Sun, 17 May 2026 UTC via a CHANG ZHENG 8 launch vehicle from the Wenchang Satellite Launch Center (WSC). Payload-class satellites include a variety of spacecraft equipped with specific instruments for various scientific and technological missions. These include communications satellites like Starlink; space stations such as the ISS; scientific satellites like the Hubble; Earth observation satellites from companies like Planet Labs, Umbra, and HawkEye 360; GPS; miniature CubeSats for education and research; and military/defense satellites.

Loading next visibility...
Identifier
69113, 2026-108K
Orbit
LEO
Country
Flag of CNCN / PRC
Related business
Manufacturer
SECM
Mission
Operational spacecraft
Bus & Motor
QIANFAN, Unknown motor
Mass
267 kg wet, ~267 kg dry
Launch date (UTC)
2026-05-17 (1 month ago)
Launch vehicle
CHANG ZHENG 8
Launch site
Wenchang Satellite Launch Center (WSC)
Object type
Payload
Rocket body
Debris
Shape & HBR
Unknown shape, 14.5 m
Radar Cross Section
Large (>1 m²)

Expand to show TLE details & history
Last TLE update: 1 day ago

TLE from 1 day ago
0 QIANFAN-154
1 69113U 26108K   26170.51798619  .00000115  00000-0  66741-4 0  9994
2 69113  89.0105  21.9569 0015953  99.0980 261.2006 14.01495003  4676
Epoch: 2026-06-19T12:25Z
TLE epoch observation values (Epoch: 2026-06-19T12:25:54.006Z)
Latitude
Longitude
-72.26394°
Altitude
893.441 km
Speed
7.404 km/s
True Right ascension
01h 27m 49s
True Declination
0° 00' 00"
Sunlit
Object was in daylight at epoch
Visualization orbit readout
Latitude
Unknown
Longitude
Unknown
Altitude
Unknown
Speed
Unknown
Apparent Right ascension
Unknown
Apparent Declination
Unknown
Sunlit
N/A
Visualization observer readout
Local Sidereal Time
07:13:19
Azimuth
Unknown
Elevation
Unknown
Doppler factor
Unknown
Orbital elements
Apogee altitude
897.188 km
Perigee altitude
874.013 km
Semi-major axis
7,263.738 km
Eccentricity
0.0016
Inclination
89.0105°
RAAN
21.9569°
Arg. of periapsis
99.098°
True anomaly
261.02°
Mean anomaly
261.2006°
Eccentric anomaly
261.11029°
Mean motion
3.50593 °/min
Orbital period
102.68 mins
BSTAR
0.000066741
Loading maneuver chart data...
Computing Atmospheric mass density...
Loading historical data...
Loading historical data...
Loading historical data...
Loading historical data...
Loading historical data...
Loading historical data...
Loading historical data...

Documentation

Showing up to 5 results
|